Location: Lane
(33.5226°N, 79.8788°W)
Time: 19:48:45
(UTC+00:00)

Explorer 11/Cluster Stage 4 - Pass Details

Date: 01 October 2022
Orbit: 466 x 1247 km, 28.8° (Epoch: 01 December)

Event Time Altitude Azimuth Distance (km) Brightness Sun altitude
Rises 23:10:41 0° 264° (W) 3,293 13.1 -2.3°
Reaches altitude 10° 23:14:49 10° 237° (WSW) 2,155 9.9 -3.1°
Maximum altitude 23:16:55 13° 212° (SSW) 1,886 9.0 -3.6°
Drops below altitude 10° 23:18:51 10° 186° (S) 1,961 8.7 -4.0°
Sets 23:22:14 0° 156° (SSE) 2,712 9.1 -4.7°
